Time,TemperatureF,DewpointF,PressureIn,WindDirection,WindDirectionDegrees,WindSpeedMPH,WindSpeedGustMPH,Humidity,HourlyPrecipIn,Conditions,Clouds,dailyrainin,SoftwareType,DateUTC
2013-07-01 00:02:00,70.4,42.6,29.23,NNW,335,0.0,3.4,37,0.00,,,0.00,WSDL version 426,2013-07-01 05:02:00,
2013-07-01 00:07:00,70.0,42.5,29.23,North,354,0.7,2.5,37,0.00,,,0.00,WSDL version 426,2013-07-01 05:07:00,
2013-07-01 00:12:00,69.7,42.5,29.23,North,360,1.5,3.1,38,0.00,,,0.00,WSDL version 426,2013-07-01 05:12:00,
2013-07-01 00:17:00,69.7,43.3,29.23,NW,318,1.2,3.1,39,0.00,,,0.00,WSDL version 426,2013-07-01 05:17:00,
2013-07-01 00:22:00,70.2,43.7,29.26,NNW,335,2.3,3.1,38,0.00,,,0.00,WSDL version 426,2013-07-01 05:22:00,
2013-07-01 00:27:00,69.8,43.0,29.26,NNW,338,1.9,3.1,38,0.00,,,0.00,WSDL version 426,2013-07-01 05:27:00,
2013-07-01 00:32:00,69.4,42.8,29.26,NW,318,2.0,2.7,39,0.00,,,0.00,WSDL version 426,2013-07-01 05:32:00,
2013-07-01 00:37:00,68.5,43.6,29.26,WNW,298,1.0,2.7,42,0.00,,,0.00,WSDL version 426,2013-07-01 05:37:00,
2013-07-01 00:42:00,67.7,45.3,29.26,SSW,205,1.0,2.5,46,0.00,,,0.00,WSDL version 426,2013-07-01 05:42:00,
2013-07-01 00:47:00,67.6,46.3,29.26,SW,230,1.3,2.5,46,0.00,,,0.00,WSDL version 426,2013-07-01 05:47:00,
2013-07-01 00:52:00,67.2,45.1,29.26,WSW,248,0.0,2.5,45,0.00,,,0.00,WSDL version 426,2013-07-01 05:52:00,
2013-07-01 00:57:00,66.8,44.8,29.26,NNW,338,1.3,2.2,45,0.00,,,0.00,WSDL version 426,2013-07-01 05:57:00,
2013-07-01 01:02:00,66.6,44.6,29.26,North,360,1.4,2.5,45,0.00,,,0.00,WSDL version 426,2013-07-01 06:02:00,
2013-07-01 01:07:00,66.6,44.6,29.26,NNW,340,1.8,2.9,45,0.00,,,0.00,WSDL version 426,2013-07-01 06:07:00,
2013-07-01 01:12:00,66.6,44.1,29.26,North,357,1.5,3.1,44,0.00,,,0.00,WSDL version 426,2013-07-01 06:12:00,
2013-07-01 01:17:00,66.8,44.9,29.26,North,357,1.1,3.1,47,0.00,,,0.00,WSDL version 426,2013-07-01 06:17:00,
2013-07-01 01:22:00,67.3,46.3,29.26,NNE,14,1.0,2.2,46,0.00,,,0.00,WSDL version 426,2013-07-01 06:22:00,
2013-07-01 01:27:00,67.1,45.6,29.26,North,8,0.3,1.3,46,0.00,,,0.00,WSDL version 426,2013-07-01 06:27:00,
2013-07-01 01:32:00,66.7,45.1,29.26,NNW,338,1.5,2.0,46,0.00,,,0.00,WSDL version 426,2013-07-01 06:32:00,
2013-07-01 01:37:00,66.5,44.5,29.26,North,360,1.3,2.5,45,0.00,,,0.00,WSDL version 426,2013-07-01 06:37:00,
2013-07-01 01:42:00,66.4,44.4,29.26,NNW,333,1.7,2.7,45,0.00,,,0.00,WSDL version 426,2013-07-01 06:42:00,
2013-07-01 01:47:00,66.4,44.4,29.26,NNW,343,1.5,2.7,45,0.00,,,0.00,WSDL version 426,2013-07-01 06:47:00,
2013-07-01 01:52:00,66.2,44.3,29.26,NNW,338,0.6,2.9,45,0.00,,,0.00,WSDL version 426,2013-07-01 06:52:00,
2013-07-01 01:57:00,66.2,44.3,29.26,NNW,340,1.2,2.9,45,0.00,,,0.00,WSDL version 426,2013-07-01 06:57:00,
2013-07-01 02:02:00,66.0,44.7,29.26,NNW,338,1.4,2.2,46,0.00,,,0.00,WSDL version 426,2013-07-01 07:02:00,
2013-07-01 02:07:00,65.9,44.6,29.26,NNW,332,1.4,2.7,46,0.00,,,0.00,WSDL version 426,2013-07-01 07:07:00,
2013-07-01 02:12:00,66.5,46.2,29.26,NNW,343,1.1,2.9,48,0.00,,,0.00,WSDL version 426,2013-07-01 07:12:00,
2013-07-01 02:17:00,67.0,46.3,29.26,North,360,2.3,3.4,47,0.00,,,0.00,WSDL version 426,2013-07-01 07:17:00,
2013-07-01 02:22:00,66.7,45.5,29.23,North,10,2.6,4.5,46,0.00,,,0.00,WSDL version 426,2013-07-01 07:22:00,
2013-07-01 02:27:00,66.6,45.6,29.23,North,3,2.8,4.5,47,0.00,,,0.00,WSDL version 426,2013-07-01 07:27:00,
2013-07-01 02:32:00,66.6,45.7,29.23,North,10,2.8,4.3,47,0.00,,,0.00,WSDL version 426,2013-07-01 07:32:00,
2013-07-01 02:37:00,66.6,45.7,29.23,North,349,2.8,4.9,47,0.00,,,0.00,WSDL version 426,2013-07-01 07:37:00,
2013-07-01 02:42:00,66.6,45.8,29.23,NNW,345,3.2,4.9,47,0.00,,,0.00,WSDL version 426,2013-07-01 07:42:00,
2013-07-01 02:47:00,66.6,46.2,29.23,NNW,347,2.7,4.3,48,0.00,,,0.00,WSDL version 426,2013-07-01 07:47:00,
2013-07-01 02:52:00,66.6,46.3,29.23,North,360,3.0,4.3,48,0.00,,,0.00,WSDL version 426,2013-07-01 07:52:00,
2013-07-01 02:57:00,66.7,46.4,29.23,North,350,3.4,4.5,48,0.00,,,0.00,WSDL version 426,2013-07-01 07:57:00,
2013-07-01 03:02:00,66.9,47.2,29.23,NW,325,2.7,4.5,50,0.00,,,0.00,WSDL version 426,2013-07-01 08:02:00,
2013-07-01 03:07:00,67.1,47.8,29.26,SSW,200,0.0,3.6,49,0.00,,,0.00,WSDL version 426,2013-07-01 08:07:00,
2013-07-01 03:12:00,65.6,46.5,29.26,SSE,154,0.6,2.2,50,0.00,,,0.00,WSDL version 426,2013-07-01 08:12:00,
2013-07-01 03:17:00,64.6,45.7,29.26,East,90,0.0,1.6,51,0.00,,,0.00,WSDL version 426,2013-07-01 08:17:00,
2013-07-01 03:22:00,64.0,45.8,29.23,East,90,0.2,1.6,52,0.00,,,0.00,WSDL version 426,2013-07-01 08:22:00,
2013-07-01 03:27:00,63.7,45.9,29.23,NE,35,0.9,2.0,53,0.00,,,0.00,WSDL version 426,2013-07-01 08:27:00,
2013-07-01 03:32:00,63.3,46.5,29.23,NE,45,0.9,3.1,55,0.00,,,0.00,WSDL version 426,2013-07-01 08:32:00,
2013-07-01 03:37:00,63.1,46.6,29.26,North,3,1.6,3.1,55,0.00,,,0.00,WSDL version 426,2013-07-01 08:37:00,
2013-07-01 03:43:00,63.2,46.9,29.26,North,360,2.7,3.6,56,0.00,,,0.00,WSDL version 426,2013-07-01 08:43:00,
2013-07-01 03:48:00,63.7,48.2,29.26,NNE,13,4.3,6.5,58,0.00,,,0.00,WSDL version 426,2013-07-01 08:48:00,
2013-07-01 03:53:00,64.4,49.4,29.23,NNE,17,3.5,6.5,58,0.00,,,0.00,WSDL version 426,2013-07-01 08:53:00,
2013-07-01 03:58:00,64.8,49.2,29.23,North,360,4.1,6.0,57,0.00,,,0.00,WSDL version 426,2013-07-01 08:58:00,
2013-07-01 04:03:00,65.2,49.8,29.23,North,11,4.4,6.3,58,0.00,,,0.00,WSDL version 426,2013-07-01 09:03:00,
2013-07-01 04:08:00,65.9,50.3,29.26,NNE,17,4.1,6.3,56,0.00,,,0.00,WSDL version 426,2013-07-01 09:08:00,
2013-07-01 04:13:00,65.8,49.3,29.26,NNE,13,4.5,6.3,56,0.00,,,0.00,WSDL version 426,2013-07-01 09:13:00,
2013-07-01 04:18:00,65.7,49.2,29.26,North,11,4.8,7.6,55,0.00,,,0.00,WSDL version 426,2013-07-01 09:18:00,
2013-07-01 04:23:00,65.5,49.1,29.23,NNE,20,4.0,7.6,55,0.00,,,0.00,WSDL version 426,2013-07-01 09:23:00,
2013-07-01 04:28:00,65.5,49.3,29.23,North,10,4.4,6.3,56,0.00,,,0.00,WSDL version 426,2013-07-01 09:28:00,
2013-07-01 04:33:00,65.5,49.5,29.23,NNE,14,3.7,7.4,56,0.00,,,0.00,WSDL version 426,2013-07-01 09:33:00,
2013-07-01 04:38:00,65.3,49.3,29.26,North,8,3.3,7.4,56,0.00,,,0.00,WSDL version 426,2013-07-01 09:38:00,
2013-07-01 04:43:00,65.2,49.1,29.26,North,360,3.2,4.9,56,0.00,,,0.00,WSDL version 426,2013-07-01 09:43:00,
2013-07-01 04:48:00,65.1,49.2,29.26,North,3,2.8,4.9,57,0.00,,,0.00,WSDL version 426,2013-07-01 09:48:00,
2013-07-01 04:53:00,64.9,49.1,29.26,North,10,3.1,4.3,57,0.00,,,0.00,WSDL version 426,2013-07-01 09:53:00,
2013-07-01 04:59:00,64.8,49.2,29.26,NNE,13,2.6,4.9,57,0.00,,,0.00,WSDL version 426,2013-07-01 09:59:00,
2013-07-01 05:04:00,64.6,49.1,29.26,North,3,2.6,4.9,57,0.00,,,0.00,WSDL version 426,2013-07-01 10:04:00,
2013-07-01 05:09:00,64.5,49.0,29.26,North,3,2.6,4.0,58,0.00,,,0.00,WSDL version 426,2013-07-01 10:09:00,
2013-07-01 05:14:00,64.4,49.3,29.26,North,11,2.1,3.6,58,0.00,,,0.00,WSDL version 426,2013-07-01 10:14:00,
2013-07-01 05:19:00,64.2,49.5,29.26,North,360,0.3,3.1,59,0.00,,,0.00,WSDL version 426,2013-07-01 10:19:00,
2013-07-01 05:24:00,64.2,49.7,29.26,NNW,343,0.0,2.7,60,0.00,,,0.00,WSDL version 426,2013-07-01 10:24:00,
2013-07-01 05:29:00,64.5,51.4,29.26,NW,318,0.0,1.3,62,0.00,,,0.00,WSDL version 426,2013-07-01 10:29:00,
2013-07-01 05:34:00,64.3,50.5,29.26,NNW,338,0.0,0.0,60,0.00,,,0.00,WSDL version 426,2013-07-01 10:34:00,
2013-07-01 05:39:00,63.8,49.7,29.26,NNW,338,1.1,1.6,60,0.00,,,0.00,WSDL version 426,2013-07-01 10:39:00,
2013-07-01 05:44:00,63.5,49.5,29.26,NW,320,2.3,2.9,61,0.00,,,0.00,WSDL version 426,2013-07-01 10:44:00,
2013-07-01 05:49:00,63.3,49.7,29.26,NW,315,2.0,2.9,61,0.00,,,0.00,WSDL version 426,2013-07-01 10:49:00,
2013-07-01 05:54:00,63.1,49.5,29.29,NW,315,1.9,2.5,61,0.00,,,0.00,WSDL version 426,2013-07-01 10:54:00,
2013-07-01 05:59:00,63.1,49.8,29.29,NW,323,1.7,2.7,62,0.00,,,0.00,WSDL version 426,2013-07-01 10:59:00,
2013-07-01 06:04:00,63.0,49.8,29.29,NNW,338,1.7,2.7,62,0.00,,,0.00,WSDL version 426,2013-07-01 11:04:00,
2013-07-01 06:09:00,63.0,49.8,29.26,NNW,338,1.4,2.7,62,0.00,,,0.00,WSDL version 426,2013-07-01 11:09:00,
2013-07-01 06:14:00,62.9,50.0,29.26,NNW,338,1.4,2.0,63,0.00,,,0.00,WSDL version 426,2013-07-01 11:14:00,
2013-07-01 06:19:00,62.8,50.0,29.26,NNW,338,0.8,2.2,63,0.00,,,0.00,WSDL version 426,2013-07-01 11:19:00,
2013-07-01 06:24:00,62.8,50.1,29.26,NNW,338,0.0,2.2,63,0.00,,,0.00,WSDL version 426,2013-07-01 11:24:00,
2013-07-01 06:29:00,62.7,50.2,29.26,NNW,338,0.0,0.0,64,0.00,,,0.00,WSDL version 426,2013-07-01 11:29:00,
2013-07-01 06:34:00,62.6,50.2,29.26,NNW,338,0.0,0.0,64,0.00,,,0.00,WSDL version 426,2013-07-01 11:34:00,
2013-07-01 06:39:00,62.6,50.3,29.29,NNW,338,0.0,1.1,64,0.00,,,0.00,WSDL version 426,2013-07-01 11:39:00,
2013-07-01 06:44:00,62.6,50.3,29.29,North,360,0.4,2.0,64,0.00,,,0.00,WSDL version 426,2013-07-01 11:44:00,
2013-07-01 06:49:00,63.0,50.9,29.29,North,360,1.2,2.0,65,0.00,,,0.00,WSDL version 426,2013-07-01 11:49:00,
2013-07-01 06:54:00,63.4,51.4,29.29,NNW,338,2.3,3.1,65,0.00,,,0.00,WSDL version 426,2013-07-01 11:54:00,
2013-07-01 06:59:00,63.8,52.2,29.29,NNW,338,2.4,3.1,66,0.00,,,0.00,WSDL version 426,2013-07-01 11:59:00,
2013-07-01 07:04:00,64.2,52.5,29.29,NNW,338,2.1,2.9,65,0.00,,,0.00,WSDL version 426,2013-07-01 12:04:00,
2013-07-01 07:09:00,64.5,52.7,29.29,NW,318,2.7,4.0,66,0.00,,,0.00,WSDL version 426,2013-07-01 12:09:00,
2013-07-01 07:14:00,64.9,52.9,29.29,NW,321,2.7,4.7,65,0.00,,,0.00,WSDL version 426,2013-07-01 12:14:00,
2013-07-01 07:19:00,65.3,53.2,29.29,NNW,328,3.1,4.7,65,0.00,,,0.00,WSDL version 426,2013-07-01 12:19:00,
2013-07-01 07:24:00,65.7,53.3,29.29,NNW,334,2.9,3.8,64,0.00,,,0.00,WSDL version 426,2013-07-01 12:24:00,
2013-07-01 07:29:00,65.9,53.4,29.29,NNW,333,2.9,4.0,64,0.00,,,0.00,WSDL version 426,2013-07-01 12:29:00,
2013-07-01 07:35:00,66.4,53.5,29.29,NNW,331,3.6,4.7,63,0.00,,,0.00,WSDL version 426,2013-07-01 12:35:00,
2013-07-01 07:40:00,66.7,53.5,29.29,NW,326,4.2,5.4,62,0.00,,,0.00,WSDL version 426,2013-07-01 12:40:00,
2013-07-01 07:45:00,67.1,53.4,29.29,NNW,340,3.6,6.0,61,0.00,,,0.00,WSDL version 426,2013-07-01 12:45:00,
2013-07-01 07:50:00,67.5,53.5,29.29,NNW,343,4.4,6.5,60,0.00,,,0.00,WSDL version 426,2013-07-01 12:50:00,
2013-07-01 07:55:00,68.0,52.9,29.29,NNW,346,5.3,8.5,58,0.00,,,0.00,WSDL version 426,2013-07-01 12:55:00,
2013-07-01 08:00:00,68.4,52.4,29.29,NNW,348,5.9,10.1,56,0.00,,,0.00,WSDL version 426,2013-07-01 13:00:00,
2013-07-01 08:05:00,68.8,52.1,29.29,North,353,4.6,10.1,55,0.00,,,0.00,WSDL version 426,2013-07-01 13:05:00,
2013-07-01 08:10:00,69.3,52.3,29.29,North,350,5.1,8.7,54,0.00,,,0.00,WSDL version 426,2013-07-01 13:10:00,
2013-07-01 08:15:00,69.6,51.6,29.29,NNE,20,6.4,9.6,52,0.00,,,0.00,WSDL version 426,2013-07-01 13:15:00,
2013-07-01 08:20:00,69.8,50.9,29.32,North,11,5.0,9.6,51,0.00,,,0.00,WSDL version 426,2013-07-01 13:20:00,
2013-07-01 08:25:00,70.1,51.0,29.32,North,350,6.5,8.7,50,0.00,,,0.00,WSDL version 426,2013-07-01 13:25:00,
2013-07-01 08:30:00,70.4,50.9,29.32,North,349,4.9,8.7,50,0.00,,,0.00,WSDL version 426,2013-07-01 13:30:00,
2013-07-01 08:35:00,70.7,50.8,29.32,North,3,5.7,8.7,49,0.00,,,0.00,WSDL version 426,2013-07-01 13:35:00,
2013-07-01 08:40:00,71.0,50.9,29.32,North,360,5.4,8.5,49,0.00,,,0.00,WSDL version 426,2013-07-01 13:40:00,
2013-07-01 08:45:00,71.3,50.6,29.32,North,357,5.9,8.1,48,0.00,,,0.00,WSDL version 426,2013-07-01 13:45:00,
2013-07-01 08:50:00,71.6,50.4,29.32,North,358,4.5,8.1,47,0.00,,,0.00,WSDL version 426,2013-07-01 13:50:00,
2013-07-01 08:55:00,71.7,49.9,29.32,NNW,340,5.8,9.4,46,0.00,,,0.00,WSDL version 426,2013-07-01 13:55:00,
2013-07-01 09:00:00,72.0,50.1,29.32,NNW,345,5.6,9.4,46,0.00,,,0.00,WSDL version 426,2013-07-01 14:00:00,
2013-07-01 09:05:00,72.4,50.2,29.32,North,357,4.3,8.5,46,0.00,,,0.00,WSDL version 426,2013-07-01 14:05:00,
2013-07-01 09:10:00,72.9,50.5,29.32,North,3,5.5,8.5,45,0.00,,,0.00,WSDL version 426,2013-07-01 14:10:00,
2013-07-01 09:15:00,73.2,50.3,29.32,NNE,13,6.4,8.5,44,0.00,,,0.00,WSDL version 426,2013-07-01 14:15:00,
2013-07-01 09:20:00,73.6,50.3,29.32,NNE,29,5.9,8.5,43,0.00,,,0.00,WSDL version 426,2013-07-01 14:20:00,
2013-07-01 09:25:00,74.1,50.2,29.32,NNW,347,6.2,10.1,43,0.00,,,0.00,WSDL version 426,2013-07-01 14:25:00,
2013-07-01 09:30:00,74.5,50.0,29.32,North,6,6.5,10.1,42,0.00,,,0.00,WSDL version 426,2013-07-01 14:30:00,
2013-07-01 09:35:00,74.8,49.9,29.32,NNW,335,6.5,8.7,41,0.00,,,0.00,WSDL version 426,2013-07-01 14:35:00,
2013-07-01 09:40:00,75.3,49.7,29.32,North,6,5.6,9.8,40,0.00,,,0.00,WSDL version 426,2013-07-01 14:40:00,
2013-07-01 09:45:00,75.7,49.4,29.32,North,8,4.8,9.8,40,0.00,,,0.00,WSDL version 426,2013-07-01 14:45:00,
2013-07-01 09:50:00,76.3,49.4,29.32,NNW,343,5.5,8.7,38,0.00,,,0.00,WSDL version 426,2013-07-01 14:50:00,
2013-07-01 09:55:00,76.7,49.3,29.32,NE,34,4.9,8.5,38,0.00,,,0.00,WSDL version 426,2013-07-01 14:55:00,
2013-07-01 10:00:00,77.2,48.3,29.32,North,360,6.5,8.5,35,0.00,,,0.00,WSDL version 426,2013-07-01 15:00:00,
2013-07-01 10:05:00,77.4,47.9,29.32,NNW,340,6.0,9.6,35,0.00,,,0.00,WSDL version 426,2013-07-01 15:05:00,
2013-07-01 10:10:00,77.9,47.9,29.32,NNW,348,6.0,9.6,35,0.00,,,0.00,WSDL version 426,2013-07-01 15:10:00,
2013-07-01 10:15:00,78.5,48.2,29.32,NNW,341,6.5,10.1,35,0.00,,,0.00,WSDL version 426,2013-07-01 15:15:00,
2013-07-01 10:20:00,78.6,47.9,29.32,NNE,20,7.5,13.0,34,0.00,,,0.00,WSDL version 426,2013-07-01 15:20:00,
2013-07-01 10:25:00,78.9,48.2,29.32,North,8,5.6,13.0,34,0.00,,,0.00,WSDL version 426,2013-07-01 15:25:00,
2013-07-01 10:30:00,79.3,47.9,29.32,North,360,6.1,11.4,33,0.00,,,0.00,WSDL version 426,2013-07-01 15:30:00,
2013-07-01 10:35:00,79.5,47.9,29.32,North,5,7.0,10.5,33,0.00,,,0.00,WSDL version 426,2013-07-01 15:35:00,
2013-07-01 10:40:00,79.8,48.2,29.32,North,3,6.8,10.5,33,0.00,,,0.00,WSDL version 426,2013-07-01 15:40:00,
2013-07-01 10:45:00,80.0,48.2,29.32,NNW,343,6.6,12.1,33,0.00,,,0.00,WSDL version 426,2013-07-01 15:45:00,
2013-07-01 10:50:00,80.6,48.4,29.32,North,8,7.0,12.1,32,0.00,,,0.00,WSDL version 426,2013-07-01 15:50:00,
2013-07-01 10:55:00,81.1,48.4,29.32,North,355,5.7,10.1,32,0.00,,,0.00,WSDL version 426,2013-07-01 15:55:00,
2013-07-01 11:00:00,81.2,47.7,29.32,NNE,28,8.2,14.3,31,0.00,,,0.00,WSDL version 426,2013-07-01 16:00:00,
2013-07-01 11:05:00,81.0,47.6,29.32,North,3,7.3,14.3,31,0.00,,,0.00,WSDL version 426,2013-07-01 16:05:00,
2013-07-01 11:10:00,81.3,47.8,29.32,NNE,25,8.0,13.9,31,0.00,,,0.00,WSDL version 426,2013-07-01 16:10:00,
2013-07-01 11:15:00,81.7,47.7,29.32,North,6,10.4,14.8,30,0.00,,,0.00,WSDL version 426,2013-07-01 16:15:00,
2013-07-01 11:20:00,81.9,47.5,29.32,NNE,18,8.3,14.8,30,0.00,,,0.00,WSDL version 426,2013-07-01 16:20:00,
2013-07-01 11:25:00,82.2,47.7,29.32,North,11,8.0,13.2,30,0.00,,,0.00,WSDL version 426,2013-07-01 16:25:00,
2013-07-01 11:30:00,82.6,47.5,29.32,North,355,8.6,14.8,29,0.00,,,0.00,WSDL version 426,2013-07-01 16:30:00,
2013-07-01 11:35:00,83.2,47.9,29.32,North,3,8.0,16.8,29,0.00,,,0.00,WSDL version 426,2013-07-01 16:35:00,
2013-07-01 11:41:00,83.6,48.0,29.32,North,358,6.2,13.0,29,0.00,,,0.00,WSDL version 426,2013-07-01 16:41:00,
2013-07-01 11:46:00,83.9,48.3,29.32,North,357,6.8,11.9,29,0.00,,,0.00,WSDL version 426,2013-07-01 16:46:00,
2013-07-01 11:51:00,84.0,48.2,29.32,NNE,14,7.5,15.4,29,0.00,,,0.00,WSDL version 426,2013-07-01 16:51:00,
2013-07-01 11:56:00,84.6,47.8,29.32,North,358,8.4,15.4,28,0.00,,,0.00,WSDL version 426,2013-07-01 16:56:00,
2013-07-01 12:01:00,85.2,46.6,29.32,NNE,31,8.6,14.1,25,0.00,,,0.00,WSDL version 426,2013-07-01 17:01:00,
2013-07-01 12:06:00,85.8,47.0,29.32,North,352,7.3,13.2,26,0.00,,,0.00,WSDL version 426,2013-07-01 17:06:00,
2013-07-01 12:12:00,85.9,46.4,29.32,NNE,14,6.8,13.0,26,0.00,,,0.00,WSDL version 426,2013-07-01 17:12:00,
2013-07-01 12:17:00,85.6,45.1,29.32,NNE,13,8.6,13.0,24,0.00,,,0.00,WSDL version 426,2013-07-01 17:17:00,
2013-07-01 12:22:00,85.7,45.0,29.32,NNW,338,8.9,14.3,25,0.00,,,0.00,WSDL version 426,2013-07-01 17:22:00,
2013-07-01 12:27:00,86.3,45.3,29.32,North,10,8.7,14.3,24,0.00,,,0.00,WSDL version 426,2013-07-01 17:27:00,
2013-07-01 12:32:00,86.0,45.4,29.32,North,360,7.4,12.5,24,0.00,,,0.00,WSDL version 426,2013-07-01 17:32:00,
2013-07-01 12:37:00,84.8,44.0,29.32,NNW,343,6.8,12.8,25,0.00,,,0.00,WSDL version 426,2013-07-01 17:37:00,
2013-07-01 12:42:00,84.7,44.6,29.32,North,360,10.3,17.7,24,0.00,,,0.00,WSDL version 426,2013-07-01 17:42:00,
2013-07-01 12:47:00,83.9,43.3,29.32,NNW,328,9.5,17.7,24,0.00,,,0.00,WSDL version 426,2013-07-01 17:47:00,
2013-07-01 12:53:00,85.9,45.7,29.32,North,3,8.6,15.2,24,0.00,,,0.00,WSDL version 426,2013-07-01 17:53:00,
2013-07-01 12:58:00,86.9,45.3,29.32,NNE,25,5.9,11.9,24,0.00,,,0.00,WSDL version 426,2013-07-01 17:58:00,
2013-07-01 13:03:00,87.6,45.6,29.32,North,8,7.3,11.9,23,0.00,,,0.00,WSDL version 426,2013-07-01 18:03:00,
2013-07-01 13:08:00,87.4,44.1,29.32,NNE,18,6.5,12.5,22,0.00,,,0.00,WSDL version 426,2013-07-01 18:08:00,
2013-07-01 13:13:00,88.1,43.3,29.32,NNW,343,5.7,13.2,21,0.00,,,0.00,WSDL version 426,2013-07-01 18:13:00,
2013-07-01 13:19:00,87.4,41.5,29.32,North,349,7.0,15.4,20,0.00,,,0.00,WSDL version 426,2013-07-01 18:19:00,
2013-07-01 13:24:00,86.2,41.1,29.32,NNW,338,9.4,15.4,21,0.00,,,0.00,WSDL version 426,2013-07-01 18:24:00,
2013-07-01 13:30:00,87.1,42.2,29.32,NNW,345,8.0,13.4,21,0.00,,,0.00,WSDL version 426,2013-07-01 18:30:00,
2013-07-01 13:35:00,87.6,41.9,29.32,NNW,335,7.0,13.0,20,0.00,,,0.00,WSDL version 426,2013-07-01 18:35:00,
2013-07-01 13:41:00,87.5,42.8,29.32,NW,323,8.8,13.4,21,0.00,,,0.00,WSDL version 426,2013-07-01 18:41:00,
2013-07-01 13:46:00,87.7,41.7,29.32,NNW,347,9.4,13.6,20,0.00,,,0.00,WSDL version 426,2013-07-01 18:46:00,
2013-07-01 13:51:00,88.4,41.5,29.32,North,353,9.9,15.9,20,0.00,,,0.00,WSDL version 426,2013-07-01 18:51:00,
2013-07-01 13:56:00,88.5,41.0,29.32,NW,326,11.1,19.0,19,0.00,,,0.00,WSDL version 426,2013-07-01 18:56:00,
2013-07-01 14:01:00,88.3,41.5,29.32,North,360,8.1,19.0,20,0.00,,,0.00,WSDL version 426,2013-07-01 19:01:00,
2013-07-01 14:06:00,88.3,41.1,29.29,NNW,332,12.3,16.6,19,0.00,,,0.00,WSDL version 426,2013-07-01 19:06:00,
2013-07-01 14:11:00,88.9,41.3,29.29,North,350,10.8,16.6,19,0.00,,,0.00,WSDL version 426,2013-07-01 19:11:00,
2013-07-01 14:16:00,89.2,41.6,29.29,North,353,8.7,15.4,19,0.00,,,0.00,WSDL version 426,2013-07-01 19:16:00,
2013-07-01 14:21:00,89.3,41.7,29.29,NNW,340,9.8,15.9,19,0.00,,,0.00,WSDL version 426,2013-07-01 19:21:00,
2013-07-01 14:26:00,88.8,41.3,29.29,North,3,7.9,15.9,19,0.00,,,0.00,WSDL version 426,2013-07-01 19:26:00,
2013-07-01 14:31:00,89.5,40.9,29.29,NW,323,4.7,14.1,18,0.00,,,0.00,WSDL version 426,2013-07-01 19:31:00,
2013-07-01 14:36:00,89.9,40.8,29.29,NNW,345,9.2,16.1,18,0.00,,,0.00,WSDL version 426,2013-07-01 19:36:00,
2013-07-01 14:41:00,89.5,40.5,29.29,NNW,335,10.3,16.1,18,0.00,,,0.00,WSDL version 426,2013-07-01 19:41:00,
2013-07-01 14:46:00,89.1,40.6,29.29,North,360,8.0,15.4,18,0.00,,,0.00,WSDL version 426,2013-07-01 19:46:00,
2013-07-01 14:51:00,89.9,40.7,29.29,NNW,328,7.0,11.2,18,0.00,,,0.00,WSDL version 426,2013-07-01 19:51:00,
2013-07-01 14:56:00,90.4,41.2,29.29,North,360,7.5,14.5,18,0.00,,,0.00,WSDL version 426,2013-07-01 19:56:00,
2013-07-01 15:01:00,90.8,41.5,29.29,North,353,10.7,14.8,18,0.00,,,0.00,WSDL version 426,2013-07-01 20:01:00,
2013-07-01 15:06:00,90.3,40.5,29.29,NNW,329,7.4,14.8,18,0.00,,,0.00,WSDL version 426,2013-07-01 20:06:00,
2013-07-01 15:11:00,89.8,39.7,29.29,NNW,345,7.6,14.3,18,0.00,,,0.00,WSDL version 426,2013-07-01 20:11:00,
2013-07-01 15:16:00,90.7,40.9,29.29,NW,326,6.4,13.4,18,0.00,,,0.00,WSDL version 426,2013-07-01 20:16:00,
2013-07-01 15:21:00,90.3,40.8,29.29,NNW,335,9.5,15.7,18,0.00,,,0.00,WSDL version 426,2013-07-01 20:21:00,
2013-07-01 15:26:00,88.7,39.8,29.29,NNW,343,9.6,15.7,18,0.00,,,0.00,WSDL version 426,2013-07-01 20:26:00,
2013-07-01 15:32:00,89.7,40.6,29.29,North,360,7.9,13.9,18,0.00,,,0.00,WSDL version 426,2013-07-01 20:32:00,
2013-07-01 15:37:00,90.7,39.9,29.29,NW,323,8.9,14.8,15,0.00,,,0.00,WSDL version 426,2013-07-01 20:37:00,
2013-07-01 15:42:00,91.1,40.2,29.29,North,350,9.1,14.8,17,0.00,,,0.00,WSDL version 426,2013-07-01 20:42:00,
2013-07-01 15:48:00,90.3,39.8,29.29,NNW,338,7.2,12.8,18,0.00,,,0.00,WSDL version 426,2013-07-01 20:48:00,
2013-07-01 15:53:00,89.5,39.7,29.29,NNE,23,5.5,11.0,18,0.00,,,0.00,WSDL version 426,2013-07-01 20:53:00,
2013-07-01 15:58:00,90.6,40.8,29.29,North,349,7.8,13.2,18,0.00,,,0.00,WSDL version 426,2013-07-01 20:58:00,
2013-07-01 16:03:00,91.5,39.8,29.29,NNE,18,8.0,13.2,17,0.00,,,0.00,WSDL version 426,2013-07-01 21:03:00,
2013-07-01 16:08:00,91.3,39.8,29.29,NNW,335,4.6,12.5,17,0.00,,,0.00,WSDL version 426,2013-07-01 21:08:00,
2013-07-01 16:13:00,92.2,40.3,29.29,North,3,7.6,12.5,17,0.00,,,0.00,WSDL version 426,2013-07-01 21:13:00,
2013-07-01 16:18:00,91.7,38.1,29.29,NNW,335,8.2,12.5,15,0.00,,,0.00,WSDL version 426,2013-07-01 21:18:00,
2013-07-01 16:23:00,92.1,38.1,29.26,NNE,23,7.5,12.5,14,0.00,,,0.00,WSDL version 426,2013-07-01 21:23:00,
2013-07-01 16:28:00,92.7,37.4,29.26,NNW,338,6.0,10.7,14,0.00,,,0.00,WSDL version 426,2013-07-01 21:28:00,
2013-07-01 16:33:00,92.6,35.9,29.26,NW,312,9.4,15.2,14,0.00,,,0.00,WSDL version 426,2013-07-01 21:33:00,
2013-07-01 16:38:00,92.2,36.2,29.29,NW,315,8.8,15.2,14,0.00,,,0.00,WSDL version 426,2013-07-01 21:38:00,
2013-07-01 16:43:00,92.7,35.9,29.29,North,353,9.1,13.0,14,0.00,,,0.00,WSDL version 426,2013-07-01 21:43:00,
2013-07-01 16:48:00,90.8,33.1,29.29,NNE,14,6.5,13.2,15,0.00,,,0.00,WSDL version 426,2013-07-01 21:48:00,
2013-07-01 16:53:00,90.8,38.8,29.26,NNW,348,6.2,13.2,17,0.00,,,0.00,WSDL version 426,2013-07-01 21:53:00,
2013-07-01 16:58:00,91.3,36.3,29.26,NNW,329,8.1,14.1,14,0.00,,,0.00,WSDL version 426,2013-07-01 21:58:00,
2013-07-01 17:03:00,92.0,36.0,29.26,North,360,8.3,14.1,14,0.00,,,0.00,WSDL version 426,2013-07-01 22:03:00,
2013-07-01 17:09:00,91.0,33.9,29.26,NNE,17,8.3,12.8,15,0.00,,,0.00,WSDL version 426,2013-07-01 22:09:00,
2013-07-01 17:15:00,89.9,37.4,29.26,NNE,17,7.3,14.8,17,0.00,,,0.00,WSDL version 426,2013-07-01 22:15:00,
2013-07-01 17:20:00,88.7,39.8,29.26,NNE,28,7.2,14.8,18,0.00,,,0.00,WSDL version 426,2013-07-01 22:20:00,
2013-07-01 17:25:00,88.3,39.5,29.26,NNE,33,6.4,10.5,18,0.00,,,0.00,WSDL version 426,2013-07-01 22:25:00,
2013-07-01 17:30:00,89.9,40.7,29.26,NNE,14,6.5,10.5,18,0.00,,,0.00,WSDL version 426,2013-07-01 22:30:00,
2013-07-01 17:35:00,91.0,41.2,29.29,NNE,23,6.5,10.3,17,0.00,,,0.00,WSDL version 426,2013-07-01 22:35:00,
2013-07-01 17:40:00,91.3,40.4,29.29,NNW,338,10.3,13.4,17,0.00,,,0.00,WSDL version 426,2013-07-01 22:40:00,
2013-07-01 17:45:00,91.9,40.9,29.29,NNW,348,9.0,13.4,17,0.00,,,0.00,WSDL version 426,2013-07-01 22:45:00,
2013-07-01 17:50:00,92.6,37.3,29.26,NNW,335,7.9,13.9,17,0.00,,,0.00,WSDL version 426,2013-07-01 22:50:00,
2013-07-01 17:55:00,93.3,37.0,29.26,NNW,348,7.7,13.9,14,0.00,,,0.00,WSDL version 426,2013-07-01 22:55:00,
2013-07-01 18:00:00,92.9,36.7,29.26,NNW,345,7.9,13.0,14,0.00,,,0.00,WSDL version 426,2013-07-01 23:00:00,
2013-07-01 18:05:00,92.2,36.2,29.26,North,352,6.1,12.3,14,0.00,,,0.00,WSDL version 426,2013-07-01 23:05:00,
2013-07-01 18:10:00,91.3,36.0,29.26,NNW,338,8.4,13.4,15,0.00,,,0.00,WSDL version 426,2013-07-01 23:10:00,
2013-07-01 18:15:00,89.6,35.9,29.26,North,352,7.7,13.4,15,0.00,,,0.00,WSDL version 426,2013-07-01 23:15:00,
2013-07-01 18:20:00,88.0,34.6,29.26,NNW,340,6.9,12.8,15,0.00,,,0.00,WSDL version 426,2013-07-01 23:20:00,
2013-07-01 18:25:00,89.0,37.7,29.26,NNW,329,6.9,12.8,15,0.00,,,0.00,WSDL version 426,2013-07-01 23:25:00,
2013-07-01 18:30:00,90.4,36.5,29.26,NNW,348,8.1,12.3,15,0.00,,,0.00,WSDL version 426,2013-07-01 23:30:00,
2013-07-01 18:35:00,91.4,36.2,29.26,NNW,335,7.3,12.3,14,0.00,,,0.00,WSDL version 426,2013-07-01 23:35:00,
2013-07-01 18:40:00,92.0,36.1,29.26,North,354,9.0,13.9,14,0.00,,,0.00,WSDL version 426,2013-07-01 23:40:00,
2013-07-01 18:45:00,92.0,35.3,29.26,North,355,8.2,14.8,12,0.00,,,0.00,WSDL version 426,2013-07-01 23:45:00,
2013-07-01 18:50:00,91.3,31.6,29.26,NNE,13,9.0,14.8,12,0.00,,,0.00,WSDL version 426,2013-07-01 23:50:00,
2013-07-01 18:55:00,91.9,31.0,29.26,North,5,7.1,14.8,11,0.00,,,0.00,WSDL version 426,2013-07-01 23:55:00,
2013-07-01 19:00:00,91.8,25.0,29.26,NNE,31,7.7,12.5,9,0.00,,,0.00,WSDL version 426,2013-07-02 00:00:00,
2013-07-01 19:05:00,91.5,25.2,29.26,NNE,20,7.2,12.5,9,0.00,,,0.00,WSDL version 426,2013-07-02 00:05:00,
2013-07-01 19:10:00,91.7,25.0,29.26,NNE,25,9.5,15.2,9,0.00,,,0.00,WSDL version 426,2013-07-02 00:10:00,
2013-07-01 19:15:00,91.0,26.9,29.26,NNE,17,7.2,15.2,10,0.00,,,0.00,WSDL version 426,2013-07-02 00:15:00,
2013-07-01 19:20:00,90.8,26.8,29.29,North,358,8.6,15.4,10,0.00,,,0.00,WSDL version 426,2013-07-02 00:20:00,
2013-07-01 19:25:00,90.8,26.8,29.29,North,3,7.6,15.4,10,0.00,,,0.00,WSDL version 426,2013-07-02 00:25:00,
2013-07-01 19:30:00,90.6,26.6,29.29,North,3,8.2,12.8,10,0.00,,,0.00,WSDL version 426,2013-07-02 00:30:00,
2013-07-01 19:33:00,90.7,26.7,29.29,NNE,18,7.3,14.3,10,0.00,,,0.00,WSDL version 426,2013-07-02 00:33:00,
2013-07-01 19:38:00,89.9,19.3,29.29,NNE,15,8.0,14.3,10,0.00,,,0.00,WSDL version 426,2013-07-02 00:38:00,
2013-07-01 19:43:00,89.8,26.1,29.29,NNE,31,6.5,12.3,10,0.00,,,0.00,WSDL version 426,2013-07-02 00:43:00,
2013-07-01 19:48:00,89.2,25.6,29.29,NNE,23,9.1,11.9,10,0.00,,,0.00,WSDL version 426,2013-07-02 00:48:00,
2013-07-01 19:53:00,88.5,25.1,29.29,North,6,9.8,15.4,10,0.00,,,0.00,WSDL version 426,2013-07-02 00:53:00,
2013-07-01 19:58:00,87.9,24.6,29.29,NNE,17,6.4,15.4,10,0.00,,,0.00,WSDL version 426,2013-07-02 00:58:00,
2013-07-01 20:03:00,87.7,25.9,29.29,North,11,6.1,10.3,11,0.00,,,0.00,WSDL version 426,2013-07-02 01:03:00,
2013-07-01 20:08:00,87.4,26.5,29.29,NNE,20,6.5,10.1,11,0.00,,,0.00,WSDL version 426,2013-07-02 01:08:00,
2013-07-01 20:13:00,87.0,26.2,29.29,North,3,5.2,9.2,11,0.00,,,0.00,WSDL version 426,2013-07-02 01:13:00,
2013-07-01 20:18:00,86.3,25.7,29.29,NNE,17,6.3,9.8,11,0.00,,,0.00,WSDL version 426,2013-07-02 01:18:00,
2013-07-01 20:23:00,84.5,24.3,29.29,North,8,6.0,9.8,11,0.00,,,0.00,WSDL version 426,2013-07-02 01:23:00,
2013-07-01 20:28:00,83.0,23.1,29.29,North,8,5.9,10.5,11,0.00,,,0.00,WSDL version 426,2013-07-02 01:28:00,
2013-07-01 20:33:00,82.0,24.5,29.29,NNE,18,6.6,10.5,12,0.00,,,0.00,WSDL version 426,2013-07-02 01:33:00,
2013-07-01 20:38:00,81.5,25.9,29.29,NNE,23,5.6,10.1,14,0.00,,,0.00,WSDL version 426,2013-07-02 01:38:00,
2013-07-01 20:44:00,80.7,27.7,29.29,NNE,20,4.1,10.1,15,0.00,,,0.00,WSDL version 426,2013-07-02 01:44:00,
2013-07-01 20:49:00,80.0,28.8,29.29,NNE,28,3.6,8.5,16,0.00,,,0.00,WSDL version 426,2013-07-02 01:49:00,
2013-07-01 20:54:00,79.6,31.0,29.29,NNE,25,4.9,8.5,17,0.00,,,0.00,WSDL version 426,2013-07-02 01:54:00,
2013-07-01 20:59:00,79.2,30.7,29.29,NNE,25,3.9,8.5,17,0.00,,,0.00,WSDL version 426,2013-07-02 01:59:00,
2013-07-01 21:04:00,78.4,31.2,29.29,NNE,18,3.4,6.3,18,0.00,,,0.00,WSDL version 426,2013-07-02 02:04:00,
2013-07-01 21:09:00,77.9,32.1,29.29,NNE,18,3.7,5.8,20,0.00,,,0.00,WSDL version 426,2013-07-02 02:09:00,
2013-07-01 21:14:00,77.9,33.6,29.29,NNE,17,3.9,6.5,20,0.00,,,0.00,WSDL version 426,2013-07-02 02:14:00,
2013-07-01 21:19:00,77.7,33.5,29.29,NNE,23,4.3,6.5,20,0.00,,,0.00,WSDL version 426,2013-07-02 02:19:00,
2013-07-01 21:24:00,77.2,33.1,29.29,NNE,29,4.2,6.3,20,0.00,,,0.00,WSDL version 426,2013-07-02 02:24:00,
2013-07-01 21:29:00,76.6,33.8,29.29,NNE,30,3.1,6.5,21,0.00,,,0.00,WSDL version 426,2013-07-02 02:29:00,
2013-07-01 21:34:00,76.6,33.8,29.29,NNE,25,2.9,6.5,21,0.00,,,0.00,WSDL version 426,2013-07-02 02:34:00,
2013-07-01 21:39:00,76.5,33.7,29.32,NNE,20,2.6,4.3,21,0.00,,,0.00,WSDL version 426,2013-07-02 02:39:00,
2013-07-01 21:44:00,75.7,33.0,29.32,NNE,23,2.7,3.8,21,0.00,,,0.00,WSDL version 426,2013-07-02 02:44:00,
2013-07-01 21:49:00,75.6,33.9,29.32,NNE,14,2.5,3.8,22,0.00,,,0.00,WSDL version 426,2013-07-02 02:49:00,
2013-07-01 21:54:00,75.7,34.2,29.29,NNE,23,2.1,3.4,22,0.00,,,0.00,WSDL version 426,2013-07-02 02:54:00,
2013-07-01 21:59:00,75.5,34.0,29.29,North,357,1.7,2.9,22,0.00,,,0.00,WSDL version 426,2013-07-02 02:59:00,
2013-07-01 22:04:00,74.8,34.0,29.29,NNE,20,1.3,2.5,23,0.00,,,0.00,WSDL version 426,2013-07-02 03:04:00,
2013-07-01 22:09:00,74.4,34.7,29.32,NNW,343,0.7,2.2,24,0.00,,,0.00,WSDL version 426,2013-07-02 03:09:00,
2013-07-01 22:14:00,74.2,35.7,29.32,North,360,0.0,1.6,25,0.00,,,0.00,WSDL version 426,2013-07-02 03:14:00,
2013-07-01 22:19:00,73.4,35.9,29.32,NNW,338,0.0,1.1,26,0.00,,,0.00,WSDL version 426,2013-07-02 03:19:00,
2013-07-01 22:24:00,72.3,35.8,29.32,NNW,338,0.0,0.0,27,0.00,,,0.00,WSDL version 426,2013-07-02 03:24:00,
2013-07-01 22:29:00,71.0,38.7,29.32,NNE,23,0.0,0.9,32,0.00,,,0.00,WSDL version 426,2013-07-02 03:29:00,
2013-07-01 22:34:00,70.8,40.5,29.32,ESE,118,0.0,0.9,34,0.00,,,0.00,WSDL version 426,2013-07-02 03:34:00,
2013-07-01 22:39:00,70.7,40.6,29.32,SSE,158,0.0,0.9,33,0.00,,,0.00,WSDL version 426,2013-07-02 03:39:00,
2013-07-01 22:44:00,69.8,39.7,29.32,SSE,158,0.0,0.9,34,0.00,,,0.00,WSDL version 426,2013-07-02 03:44:00,
2013-07-01 22:49:00,69.4,39.8,29.32,SSE,158,0.0,0.0,34,0.00,,,0.00,WSDL version 426,2013-07-02 03:49:00,
2013-07-01 22:54:00,68.8,39.2,29.32,SSE,158,0.0,0.0,34,0.00,,,0.00,WSDL version 426,2013-07-02 03:54:00,
2013-07-01 22:59:00,68.3,39.2,29.32,South,186,0.0,0.0,36,0.00,,,0.00,WSDL version 426,2013-07-02 03:59:00,
2013-07-01 23:01:00,68.3,39.9,29.32,South,180,0.0,0.0,37,0.00,,,0.00,WSDL version 426,2013-07-02 04:01:00,
2013-07-01 23:02:00,68.3,40.2,29.32,South,188,0.0,0.0,37,0.00,,,0.00,WSDL version 426,2013-07-02 04:02:00,
2013-07-01 23:03:00,68.4,40.9,29.32,SSW,198,0.0,0.0,37,0.00,,,0.00,WSDL version 426,2013-07-02 04:03:00,
2013-07-01 23:04:00,68.5,41.1,29.32,SSW,205,0.0,0.0,37,0.00,,,0.00,WSDL version 426,2013-07-02 04:04:00,
2013-07-01 23:05:00,68.5,41.0,29.32,SW,225,0.0,0.0,36,0.00,,,0.00,WSDL version 426,2013-07-02 04:05:00,
2013-07-01 23:10:00,68.0,40.1,29.32,WSW,248,0.0,0.0,36,0.00,,,0.00,WSDL version 426,2013-07-02 04:10:00,
2013-07-01 23:15:00,67.4,39.9,29.32,WSW,248,0.0,0.0,37,0.00,,,0.00,WSDL version 426,2013-07-02 04:15:00,
2013-07-01 23:20:00,66.7,40.3,29.35,WSW,248,0.0,0.0,39,0.00,,,0.00,WSDL version 426,2013-07-02 04:20:00,
2013-07-01 23:25:00,66.7,42.4,29.35,East,90,0.0,0.0,42,0.00,,,0.00,WSDL version 426,2013-07-02 04:25:00,
2013-07-01 23:30:00,67.0,42.8,29.35,East,90,0.0,0.0,40,0.00,,,0.00,WSDL version 426,2013-07-02 04:30:00,
2013-07-01 23:35:00,66.4,41.4,29.32,East,90,0.0,0.0,40,0.00,,,0.00,WSDL version 426,2013-07-02 04:35:00,
2013-07-01 23:40:00,65.8,41.4,29.32,ESE,113,0.0,0.0,41,0.00,,,0.00,WSDL version 426,2013-07-02 04:40:00,
2013-07-01 23:45:00,65.4,41.7,29.32,ESE,113,0.0,0.0,42,0.00,,,0.00,WSDL version 426,2013-07-02 04:45:00,
2013-07-01 23:50:00,65.5,43.1,29.32,NW,318,0.3,2.2,46,0.00,,,0.00,WSDL version 426,2013-07-02 04:50:00,
2013-07-01 23:55:00,65.9,44.1,29.32,North,360,0.0,2.2,44,0.00,,,0.00,WSDL version 426,2013-07-02 04:55:00,